When you browse on this site, cookies collect data to enhance your experience and personalize the content and advertising you see.
Visit our Privacy Policy to learn more. By continuing to use the site, you agree to this use of cookies and data.
  • In Czech Republic
  • List of Countries
  • For 7 days
  • Water Temperature
  • Satellite Maps
  • Weather Map
  • Weather Widgets
  • user-avatar
    Login

    Hourly Weather The Bissagos Islands

    Today, 13 December, Thursday

    Time Temperature Precipitation Wind Pressure Humidity
    00:00 +25°C° 0 mm 4 mps 761 mmHg 47%
    01:00 +23°C° 0 mm 5 mps 760 mmHg 48%
    02:00 +23°C° 0 mm 5 mps 760 mmHg 50%
    03:00 +23°C° 0 mm 4 mps 760 mmHg 49%
    04:00 +22°C° 0 mm 4 mps 760 mmHg 49%
    05:00 +22°C° 0 mm 4 mps 760 mmHg 49%
    06:00 +24°C° 0 mm 3 mps 761 mmHg 42%
    07:00 +26°C° 0 mm 3 mps 761 mmHg 35%
    08:00 +27°C° 0 mm 3 mps 761 mmHg 28%
    09:00 +30°C° 0 mm 2 mps 761 mmHg 23%
    10:00 +35°C° 0 mm 2 mps 761 mmHg 18%
    11:00 +38°C° 0 mm 2 mps 761 mmHg 13%
    12:00 +38°C° 0 mm 2 mps 761 mmHg 14%
    13:00 +39°C° 0 mm 1 mps 760 mmHg 16%
    14:00 +39°C° 0 mm 1 mps 760 mmHg 18%
    15:00 +37°C° 0 mm 2 mps 760 mmHg 22%
    16:00 +36°C° 0 mm 2 mps 760 mmHg 25%
    17:00 +34°C° 0 mm 3 mps 760 mmHg 29%
    18:00 +31°C° 0 mm 3 mps 760 mmHg 36%
    19:00 +30°C° 0 mm 4 mps 761 mmHg 43%
    20:00 +28°C° 0 mm 4 mps 761 mmHg 50%
    21:00 +28°C° 0 mm 4 mps 761 mmHg 52%
    22:00 +27°C° 0 mm 4 mps 761 mmHg 53%
    23:00 +27°C° 0 mm 4 mps 762 mmHg 55%

    Tomorrow, 14 December, Friday

    Time Temperature Precipitation Wind Pressure Humidity
    00:00 +27°C° 0 mm 4 mps 761 mmHg 56%
    01:00 +26°C° 0 mm 3 mps 761 mmHg 56%
    02:00 +26°C° 0 mm 3 mps 761 mmHg 56%
    03:00 +26°C° 0 mm 3 mps 761 mmHg 56%
    04:00 +26°C° 0 mm 3 mps 761 mmHg 56%
    05:00 +26°C° 0 mm 3 mps 761 mmHg 56%
    06:00 +27°C° 0 mm 3 mps 761 mmHg 52%
    07:00 +28°C° 0 mm 3 mps 762 mmHg 48%
    08:00 +30°C° 0 mm 3 mps 762 mmHg 44%
    09:00 +34°C° 0 mm 3 mps 762 mmHg 36%
    10:00 +37°C° 0 mm 2 mps 762 mmHg 28%
    11:00 +40°C° 0 mm 2 mps 762 mmHg 19%
    12:00 +40°C° 0 mm 2 mps 762 mmHg 20%
    13:00 +40°C° 0 mm 2 mps 761 mmHg 20%
    14:00 +39°C° 0 mm 2 mps 760 mmHg 20%
    15:00 +38°C° 0 mm 3 mps 760 mmHg 27%
    16:00 +36°C° 0 mm 3 mps 760 mmHg 34%
    17:00 +34°C° 0 mm 4 mps 760 mmHg 40%
    18:00 +33°C° 0 mm 5 mps 761 mmHg 46%
    19:00 +30°C° 0 mm 5 mps 761 mmHg 51%
    20:00 +29°C° 0 mm 6 mps 761 mmHg 56%
    21:00 +29°C° 0 mm 5 mps 762 mmHg 55%
    22:00 +29°C° 0 mm 5 mps 762 mmHg 55%
    23:00 +30°C° 0 mm 4 mps 762 mmHg 54%

    Day after tomorrow, 15 December, Saturday

    Time Temperature Precipitation Wind Pressure Humidity
    00:00 +29°C° 0 mm 4 mps 761 mmHg 54%
    01:00 +29°C° 0 mm 4 mps 761 mmHg 54%
    02:00 +29°C° 0 mm 4 mps 761 mmHg 54%
    03:00 +28°C° 0 mm 4 mps 761 mmHg 53%
    04:00 +28°C° 0 mm 5 mps 761 mmHg 51%
    05:00 +27°C° 0 mm 5 mps 761 mmHg 50%
    06:00 +29°C° 0 mm 6 mps 762 mmHg 39%
    07:00 +30°C° 0 mm 6 mps 762 mmHg 28%
    08:00 +32°C° 0 mm 7 mps 763 mmHg 17%
    09:00 +35°C° 0 mm 6 mps 762 mmHg 14%
    10:00 +38°C° 0 mm 6 mps 762 mmHg 12%
    11:00 +41°C° 0 mm 6 mps 762 mmHg 9%
    12:00 +41°C° 0 mm 5 mps 762 mmHg 9%
    13:00 +42°C° 0 mm 4 mps 761 mmHg 9%
    14:00 +43°C° 0 mm 3 mps 760 mmHg 9%
    15:00 +42°C° 0 mm 3 mps 760 mmHg 10%
    16:00 +40°C° 0 mm 3 mps 760 mmHg 11%
    17:00 +40°C° 0 mm 4 mps 760 mmHg 13%
    18:00 +36°C° 0 mm 4 mps 760 mmHg 19%
    19:00 +33°C° 0 mm 4 mps 761 mmHg 26%
    20:00 +29°C° 0 mm 3 mps 761 mmHg 33%
    21:00 +28°C° 0 mm 3 mps 762 mmHg 32%
    22:00 +28°C° 0 mm 3 mps 762 mmHg 31%
    23:00 +27°C° 0 mm 2 mps 762 mmHg 30%

    16 December, Sunday

    Time Temperature Precipitation Wind Pressure Humidity
    00:00 +27°C° 0 mm 2 mps 761 mmHg 26%
    01:00 +26°C° 0 mm 3 mps 761 mmHg 21%
    02:00 +26°C° 0 mm 3 mps 761 mmHg 16%
    03:00 +26°C° 0 mm 4 mps 761 mmHg 17%
    04:00 +25°C° 0 mm 5 mps 761 mmHg 17%
    05:00 +24°C° 0 mm 6 mps 761 mmHg 18%
    06:00 +26°C° 0 mm 7 mps 761 mmHg 16%
    07:00 +28°C° 0 mm 8 mps 761 mmHg 15%
    08:00 +29°C° 0 mm 9 mps 762 mmHg 14%
    09:00 +33°C° 0 mm 8 mps 762 mmHg 12%
    10:00 +36°C° 0 mm 7 mps 762 mmHg 10%
    11:00 +40°C° 0 mm 7 mps 761 mmHg 9%
    12:00 +41°C° 0 mm 5 mps 761 mmHg 8%
    13:00 +41°C° 0 mm 4 mps 760 mmHg 8%
    14:00 +41°C° 0 mm 2 mps 759 mmHg 8%
    15:00 +40°C° 0 mm 3 mps 759 mmHg 10%
    16:00 +39°C° 0 mm 3 mps 759 mmHg 11%
    17:00 +38°C° 0 mm 4 mps 759 mmHg 13%
    18:00 +35°C° 0 mm 4 mps 760 mmHg 15%
    19:00 +33°C° 0 mm 4 mps 760 mmHg 16%
    20:00 +30°C° 0 mm 4 mps 761 mmHg 18%
    21:00 +29°C° 0 mm 4 mps 761 mmHg 20%
    22:00 +27°C° 0 mm 4 mps 761 mmHg 21%
    23:00 +26°C° 0 mm 4 mps 761 mmHg 23%

    17 December, Monday

    Time Temperature Precipitation Wind Pressure Humidity
    00:00 +26°C° 0 mm 5 mps 761 mmHg 26%
    01:00 +25°C° 0 mm 5 mps 760 mmHg 30%
    02:00 +23°C° 0 mm 5 mps 760 mmHg 33%
    03:00 +23°C° 0 mm 6 mps 760 mmHg 30%
    04:00 +23°C° 0 mm 6 mps 760 mmHg 27%
    05:00 +22°C° 0 mm 6 mps 760 mmHg 24%
    06:00 +24°C° 0 mm 6 mps 760 mmHg 22%
    07:00 +26°C° 0 mm 6 mps 761 mmHg 20%
    08:00 +27°C° 0 mm 6 mps 761 mmHg 18%
    09:00 +30°C° 0 mm 6 mps 761 mmHg 15%
    10:00 +35°C° 0 mm 5 mps 761 mmHg 12%
    11:00 +38°C° 0 mm 4 mps 761 mmHg 10%
    12:00 +40°C° 0 mm 4 mps 760 mmHg 9%
    13:00 +39°C° 0 mm 3 mps 759 mmHg 9%
    14:00 +40°C° 0 mm 2 mps 759 mmHg 9%
    15:00 +39°C° 0 mm 3 mps 759 mmHg 15%
    16:00 +37°C° 0 mm 3 mps 759 mmHg 22%
    17:00 +35°C° 0 mm 3 mps 759 mmHg 28%
    18:00 +33°C° 0 mm 4 mps 760 mmHg 39%
    19:00 +30°C° 0 mm 4 mps 760 mmHg 51%
    20:00 +28°C° 0 mm 4 mps 761 mmHg 63%
    21:00 +27°C° 0 mm 4 mps 761 mmHg 62%
    22:00 +27°C° 0 mm 4 mps 761 mmHg 62%
    23:00 +27°C° 0 mm 4 mps 761 mmHg 61%

    18 December, Tuesday

    Time Temperature Precipitation Wind Pressure Humidity
    00:00 +26°C° 0 mm 4 mps 761 mmHg 59%
    01:00 +26°C° 0 mm 4 mps 760 mmHg 56%
    02:00 +26°C° 0 mm 3 mps 760 mmHg 54%
    03:00 +25°C° 0 mm 3 mps 760 mmHg 57%
    04:00 +24°C° 0 mm 2 mps 760 mmHg 60%
    05:00 +24°C° 0 mm 2 mps 760 mmHg 63%
    06:00 +25°C° 0 mm 2 mps 761 mmHg 58%
    07:00 +27°C° 0 mm 2 mps 761 mmHg 53%
    08:00 +29°C° 0 mm 1 mps 761 mmHg 48%
    09:00 +31°C° 0 mm 1 mps 761 mmHg 41%
    10:00 +34°C° 0 mm 1 mps 761 mmHg 33%
    11:00 +35°C° 0 mm 0 mps 761 mmHg 25%
    12:00 +37°C° 0 mm 1 mps 760 mmHg 25%
    13:00 +37°C° 0 mm 1 mps 760 mmHg 25%
    14:00 +39°C° 0 mm 2 mps 759 mmHg 25%
    15:00 +37°C° 0 mm 2 mps 759 mmHg 32%
    16:00 +35°C° 0 mm 3 mps 759 mmHg 39%
    17:00 +33°C° 0 mm 4 mps 760 mmHg 46%
    18:00 +32°C° 0 mm 4 mps 760 mmHg 52%
    19:00 +29°C° 0 mm 5 mps 760 mmHg 58%
    20:00 +28°C° 0 mm 6 mps 761 mmHg 64%
    21:00 +28°C° 0 mm 6 mps 761 mmHg 67%
    22:00 +27°C° 0 mm 6 mps 761 mmHg 70%
    23:00 +27°C° 0 mm 6 mps 761 mmHg 73%
    Show more